This demonstration page uses our WeatherBlox Daily Observations layout. Learn more.

Left ArrowRight Arrow

Hourly Observations for January 24, 2017

Temp ( °F °C ) Dew Point ( °F °C ) Humidity (%) Winds ( mph kmh ) Pressure ( in mb ) Visibility ( mi km ) Precip ( " mm )
12:53 am 00:53 Clear 49 9.4 34 1.1 56 56 SE 8 13 29.60 1002 10 16 0.00 0.00
1:53 am 01:53 Clear 48 8.9 34 1.1 58 58 SE 8 13 29.56 1001 10 16 0.00 0.00
2:53 am 02:53 Clear 47 8.3 33 0.6 59 59 SE 9 15 29.54 1001 10 16 0.00 0.00
3:53 am 03:53 Clear 43 6.1 33 0.6 68 68 S 6 9 29.55 1001 10 16 0.00 0.00
4:53 am 04:53 Clear 43 6.1 34 1.1 71 71 S 9 15 29.54 1000 10 16 0.00 0.00
5:53 am 05:53 Clear 38 3.3 33 0.6 83 83 Calm 29.57 1001 10 16 0.00 0.00
6:53 am 06:53 Clear 36 2.2 32 0 86 86 VRB 5 7 29.60 1002 10 16 0.00 0.00
7:53 am 07:53 Sunny 37 2.8 32 0 82 82 WNW 3 6 29.62 1003 10 16 0.00 0.00
8:53 am 08:53 Sunny 49 9.4 35 1.7 59 59 W 8 13 29.63 1003 10 16 0.00 0.00
9:53 am 09:53 Sunny 61 16.1 30 -1.1 31 31 W 22 35 29.64 1004 10 16 0.00 0.00
10:53 am 10:53 Sunny 64 17.8 30 -1.1 28 28 W 25 41 29.65 1004 10 16 0.00 0.00
11:53 am 11:53 Sunny 67 19.4 31 -0.6 26 26 W 26 43 29.64 1004 10 16 0.00 0.00
12:53 pm 12:53 Sunny 67 19.4 31 -0.6 26 26 WNW 28 44 29.62 1003 10 16 0.00 0.00
1:53 pm 13:53 Sunny 68 20 30 -1.1 24 24 W 23 37 29.60 1002 10 16 0.00 0.00
2:53 pm 14:53 Sunny 68 20 30 -1.1 24 24 W 25 41 29.59 1002 10 16 0.00 0.00
3:53 pm 15:53 Sunny 66 18.9 30 -1.1 26 26 WNW 26 43 29.60 1002 10 16 0.00 0.00
4:53 pm 16:53 Sunny 64 17.8 28 -2.2 26 26 WNW 30 48 29.62 1003 10 16 0.00 0.00
5:25 pm 17:25 Mostly Sunny 63 17.2 28 -2.2 27 27 WNW 21 33 29.62 1003 10 16 0.00 0.00
5:53 pm 17:53 Sunny 62 16.7 28 -2.2 28 28 WNW 24 39 29.66 1004 10 16 0.00 0.00
6:53 pm 18:53 Clear 57 13.9 28 -2.2 33 33 W 21 33 29.69 1006 10 16 0.00 0.00
7:53 pm 19:53 Clear 54 12.2 28 -2.2 37 37 WNW 8 13 29.75 1008 10 16 0.00 0.00
8:53 pm 20:53 Clear 52 11.1 25 -3.9 35 35 WNW 12 19 29.77 1008 10 16 0.00 0.00
9:53 pm 21:53 Clear 51 10.6 20 -6.7 29 29 NW 15 24 29.78 1008 10 16 0.00 0.00
10:53 pm 22:53 Clear 50 10 18 -7.8 28 28 NW 14 22 29.80 1009 10 16 0.00 0.00
11:53 pm 23:53 Clear 47 8.3 17 -8.3 30 30 NW 8 13 29.81 1010 10 16 0.00 0.00

Powered by AerisWeather